Torna al catalogo

SL-8 DEB

AttivoLEO
NORAD 18681·DEBRIS·🇷🇺 Russia

Lanciato Jun 9, 1987 da Plesetsk Cosmodrome

Loading…

Prossimi Passaggi (prossime 24 ore)

TLE

AggiornatoSource: Space-Track

Epoca: Sep 14, 2026, 11:14 UTC

1 18681U 87049D   26257.46855374  .00000810  00000-0  21613-3 0  9991
2 18681  74.0267  69.2600 0016105 265.0071 124.9022 14.49995850 58512

Traccia SL-8 DEB in tempo reale con AllMySat

Download on the App Store